Regional Weather Roundup
Issued by NWS Huntsville, AL

Home | Current Version | Previous Version | Text Only | Print | Product List | Glossary On
Versions: 1 2 3 4 5 6 7 8 9 10 11 12 13 14 15 16 17 18 19 20 21 22 23 24 25 26 27 28 29 30 31 32 33 34 35 36 37 38 39 40 41 42 43 44 45 46 47 48 49 50
000
ASUS44 KHUN 301110
RWRHUN

WEATHER ROUNDUP FOR THE TENNESSEE VALLEY
NATIONAL WEATHER SERVICE HUNTSVILLE AL
600 AM CDT SAT APR 30 2016

ALZ001>004-301200-
NORTHWEST ALABAMA

CITY           SKY/WX    TMP DP  RH WIND       PRES   REMARKS
SHOALS AIRPORT NOT AVBL
$$

ALZ005>007-016-301200-
NORTH CENTRAL ALABAMA

CITY           SKY/WX    TMP DP  RH WIND       PRES   REMARKS
DECATUR AP     CLOUDY    62  60  93 CALM      29.90R
HUNTSVILLE AP  PTCLDY    63  59  87 E6        29.89S
HUN NWS/UAH      N/A     63  60  89 W1          N/A
MERIDIANVILLE  CLOUDY    63  55  77 CALM      29.89F
REDSTONE ARSN  PTCLDY    63  60  90 SW2       29.89S
VINEMONT AP    FAIR      63  57  83 SE3       29.92R
$$

ALZ008>010-301200-
NORTHEAST ALABAMA

CITY           SKY/WX    TMP DP  RH WIND       PRES   REMARKS
ALBERTVILLE    CLOUDY    59  59 100 E3        29.90F
FORT PAYNE     CLOUDY    59  55  88 CALM      29.91F
SCOTTSBORO AP  CLOUDY    59  59 100 CALM      29.93S
SCOTTSBORO HCN   N/A     61 N/A N/A MISG        N/A
VALLEY HEAD      N/A     63 N/A N/A MISG        N/A
$$

TNZ076-096-097-301200-
SOUTHEASTERN MIDDLE TENNESSEE

CITY           SKY/WX    TMP DP  RH WIND       PRES   REMARKS
TULLAHOMA      CLOUDY    63  61  94 SE3       29.92R
WINCHESTER     CLOUDY    66  52  59 SE5       29.92R
$$

...SURROUNDING SITES...

CITY           SKY/WX    TMP DP  RH WIND       PRES   REMARKS
ATLANTA        MOCLDY    69  55  60 SE3       29.94S
ANNISTON       MOCLDY    64  58  80 NE7       29.91F
BIRMINGHAM     MOCLDY    64  60  87 CALM      29.91F
CHATTANOOGA    CLOUDY    64  59  83 CALM      29.94S
DALTON         CLOUDY    59  59 100 CALM      29.95R
GADSDEN        FOG       57  57 100 CALM      29.92R VSB 1/2
GOLDEN TRNGL   CLOUDY    64  63  94 S5        29.88
HALEYVILLE     FAIR      62  59  90 S5        29.91R
JACKSON TN     CLOUDY    63  60  90 SE3       29.85S
MEMPHIS        CLOUDY    66  62  87 SE9       29.81F
NASHVILLE      LGT RAIN  64  60  87 CALM      29.89F
OXFORD MS      FAIR      64  61  88 S8        29.86R
ROME           CLOUDY    62  59  90 CALM      29.93R
SAVANNAH       MOCLDY    61  61 100 CALM      29.86S
TUPELO         CLOUDY    64  60  87 SE6       29.86R
TUSCALOOSA     MOCLDY    62  62 100 CALM      29.90R
$$

...GULF COAST WEATHER...

CITY           SKY/WX    TMP DP  RH WIND       PRES   REMARKS
GULFPORT       CLOUDY    76  72  87 SE17G23   29.81F
PASCAGOULA     CLOUDY    75  73  93 SE10G18   29.83F
MOBILE         CLOUDY    73  73 100 SE8       29.86R
GULF SHORES    CLOUDY    73  73 100 E13       29.85S
DESTIN         CLOUDY    75  74  96 SE10      29.87  FOG
PANAMA CITY    FOG       71  71 100 E5        29.91R VSB<1/4
APPALACHICOLA  FOG       72  72 100 NE3       29.91R VSB 1/4
$$




USA.gov is the U.S. government's official web portal to all federal, state and local government web resources and services.